#timestamp,LO_Frequency,Hit,StdDev 
1704470415.2,286046998.6,N
1704470435.0,286047000.9,N
1704470435.9,286047000.9,N
1704470455.8,286047001.1,N
1704470475.6,286046998.1,N
1704470495.4,286046998.8,N
1704470515.3,286047001.1,N
1704470535.1,286047000.9,N
1704470555.8,286046998.2,N
1704470575.7,286047001.1,N
1704470595.5,286046999.3,N
1704470615.4,286046998.5,N
1704470635.2,286046999.4,N
1704470655.0,286046996.5,N
1704470655.9,286046996.5,N
1704470675.8,286046996.6,N
1704470695.6,286046999.5,N
1704470715.5,286047000.8,N
1704470735.3,286046998.5,N
1704470755.1,286046999.1,N
1704470775.9,286046998.9,N
1704470795.7,286046999.5,N
1704470815.6,286046999.0,N
1704470835.4,286046998.5,N
1704470855.2,286046998.6,N
1704470875.1,286046999.3,N
1704470876.0,286046999.3,N
1704470895.8,286046999.5,N
1704470915.6,286046996.9,N
1704470935.5,286046999.6,N
1704470955.3,286046998.4,N
1704470975.2,286046996.8,N
1704470995.9,286046999.2,N
1704471015.7,286046999.0,N
1704471035.6,286047000.6,N
1704471055.4,286046998.7,N
1704471075.3,286046998.9,N
1704471095.1,286046998.8,N
1704471096.0,286046998.8,N
1704471115.8,286046998.5,N
1704471135.7,286046998.6,N
1704471155.5,286046999.7,N
1704471175.4,286047002.2,N
1704471195.2,286047002.3,N
1704471215.0,286047000.2,N
1704471215.9,286047000.2,N
1704471235.8,286047000.5,N
1704471255.6,286047001.0,N
1704471275.4,286047000.7,N
1704471295.3,286046998.1,N
1704471315.1,286047001.2,N
1704471335.9,286046998.3,N
1704471355.7,286046996.5,N
1704471375.5,286046996.7,N
1704471395.4,286046999.5,N
1704471415.2,286046996.7,N
1704471435.0,286046997.3,N
1704471435.9,286046997.3,N
1704471455.8,286046997.6,N
1704471475.6,286046995.1,Y
1704471495.5,286046997.5,P
1704471515.3,286046995.1,P
1704471535.1,286046995.2,N
1704471555.9,286046997.7,N
1704471575.7,286046995.0,Y
1704471595.6,286046998.4,P
1704471615.4,286046998.1,N
1704471635.2,286046998.1,P
1704471655.1,286046999.3,N
1704471656.0,286046999.3,N
1704471675.8,286046998.8,N
1704471695.6,286046996.5,Y
1704471715.5,286047000.5,P
1704471735.3,286047001.0,N
1704471755.2,286046998.4,N
1704471775.9,286047001.0,N
1704471795.7,286046999.0,N
1704471815.6,286046999.2,N
1704471835.4,286046999.6,N
1704471855.2,286046996.8,Y
1704471875.1,286046997.7,P
1704471876.0,286046997.7,N
1704471895.8,286046996.8,P
1704471915.7,286046997.9,N
1704471935.5,286046997.7,N
1704471955.3,286046997.7,N
1704471975.2,286046999.6,N
1704471995.0,286046996.6,Y
1704471995.9,286046996.6,P
1704472015.8,286046998.7,N
1704472035.6,286046999.6,N
1704472055.4,286046996.7,Y
1704472075.3,286046998.2,P
1704472095.1,286046998.1,P
1704472115.8,286046998.8,P
1704472135.7,286047001.1,Y
1704472155.5,286047000.2,P
1704472175.4,286047000.4,N
1704472195.2,286047001.0,N
1704472215.0,286047002.3,N
1704472215.9,286047002.3,N
1704472235.8,286047000.6,N
1704472255.6,286047000.7,N
1704472275.5,286046998.5,N
1704472295.3,286046999.1,N
1704472315.1,286046999.0,N
1704472335.9,286046998.4,N
1704472355.7,286046998.4,N
1704472375.5,286047000.5,N
1704472395.4,286047000.9,N
1704472415.2,286047000.0,N
1704472435.1,286047001.2,N
1704472436.0,286047001.2,N
1704472455.8,286046998.5,N
1704472475.6,286046998.6,N
1704472495.5,286047001.1,N
1704472515.3,286046999.4,N
1704472535.1,286047001.2,N
1704472555.9,286047000.6,N
1704472575.7,286046998.5,N
1704472595.6,286046999.0,N
1704472615.4,286046999.2,N
1704472635.2,286046998.2,N
1704472655.1,286046998.3,N
1704472656.0,286046998.3,N
1704472675.8,286047001.2,N
1704472695.6,286047001.1,N
1704472715.5,286046998.2,N
1704472735.3,286046998.8,N
1704472755.2,286046998.5,N
1704472775.9,286047001.1,N
1704472795.7,286046998.4,N
1704472815.6,286047000.3,N
1704472835.4,286047000.8,N
1704472855.3,286046999.8,N
1704472875.1,286047000.9,N
1704472876.0,286047000.9,N
1704472895.8,286046998.5,N
1704472915.7,286047000.4,N
1704472935.5,286046998.1,N
1704472955.3,286047001.0,N
1704472975.2,286047000.8,N
1704472995.0,286046998.1,N
1704472995.9,286046998.1,N
1704473015.8,286047003.6,N
1704473035.6,286047002.8,N
1704473055.4,286046999.7,N
1704473075.3,286047003.8,N
1704473095.1,286047011.9,Y
1704473115.9,286047009.8,P
1704473135.7,286047010.4,N
1704473155.5,286047006.1,N
1704473175.4,286047007.1,N
1704473195.2,286047005.8,N
1704473215.0,286047008.6,N
1704473215.9,286047008.6,N
1704473235.8,286047011.0,Y
1704473255.6,286047013.0,P
1704473275.5,286047014.6,P
1704473295.3,286047010.9,P
1704473315.1,286047010.5,Y
1704473335.9,286046997.8,P
1704473355.7,286046997.6,N
1704473375.6,286046997.3,N
1704473395.4,286046997.6,N
1704473415.2,286046994.0,N
1704473435.1,286046990.1,N
1704473436.0,286046990.1,N
1704473455.8,286046990.9,N
1704473475.6,286046988.5,N
1704473495.5,286046987.3,N
1704473515.3,286046988.4,N
1704473535.2,286046985.4,N
1704473555.9,286046984.4,N
1704473575.7,286046983.5,N
1704473595.6,286046981.2,N
1704473615.4,286046979.6,N
1704473635.2,286046980.0,N
1704473655.1,286046977.6,N
1704473656.0,286046977.6,N
1704473675.8,286046976.1,N
1704473695.7,286046975.8,N
1704473715.5,286046976.1,N
1704473735.3,286046975.7,N
1704473755.2,286046976.4,N
1704473775.0,286046974.2,N
1704473775.9,286046974.2,N
1704473795.7,286046974.6,N
1704473815.6,286046974.4,N
1704473835.4,286046974.1,N
1704473855.3,286046974.9,N
1704473875.1,286046974.8,Y
1704473895.8,286046991.0,P
1704473915.7,286046990.4,N
1704473935.5,286046993.2,N
1704473955.3,286046990.2,N
1704473975.2,286046993.1,N
1704473995.0,286046990.3,N
1704473995.9,286046990.3,Y
